TimeCST,TemperatureF,Dew PointF,Humidity,Sea Level PressureIn,VisibilityMPH,Wind Direction,Wind SpeedMPH,Gust SpeedMPH,PrecipitationIn,Events,Conditions,WindDirDegrees,DateUTC
12:15 AM,14.4,6.1,70,30.11,10.0,NW,15.0,19.6,N/A,,Mostly Cloudy,320,2013-01-13 06:15:00
12:35 AM,13.1,3.9,67,30.11,10.0,NNW,12.7,20.7,N/A,,Scattered Clouds,330,2013-01-13 06:35:00
12:55 AM,12.2,4.1,70,30.13,10.0,NW,12.7,-,N/A,,Scattered Clouds,320,2013-01-13 06:55:00
1:15 AM,11.8,3.7,70,30.13,10.0,NNW,11.5,-,N/A,,Clear,330,2013-01-13 07:15:00
1:35 AM,11.3,3.9,72,30.11,10.0,NNW,10.4,-,N/A,,Clear,330,2013-01-13 07:35:00
1:55 AM,11.1,3.7,72,30.12,10.0,NNW,11.5,16.1,N/A,,Clear,330,2013-01-13 07:55:00
2:15 AM,10.9,3.4,72,30.13,10.0,NNW,15.0,21.9,N/A,,Clear,330,2013-01-13 08:15:00
2:55 AM,10.4,3.6,74,30.13,10.0,NNW,10.4,18.4,N/A,,Clear,340,2013-01-13 08:55:00
3:15 AM,10.4,3.9,75,30.14,10.0,NNW,10.4,-,N/A,,Clear,340,2013-01-13 09:15:00
3:35 AM,10.0,4.1,77,30.14,10.0,Calm,Calm,-,N/A,,Scattered Clouds,0,2013-01-13 09:35:00
3:55 AM,10.2,4.6,78,30.14,7.0,North,6.9,-,N/A,,Mostly Cloudy,350,2013-01-13 09:55:00
4:15 AM,11.1,4.5,75,30.14,10.0,NNW,11.5,17.3,N/A,,Overcast,330,2013-01-13 10:15:00
4:35 AM,11.5,3.9,72,30.15,10.0,NNW,15.0,19.6,N/A,,Overcast,340,2013-01-13 10:35:00
4:55 AM,11.1,3.4,71,30.15,10.0,NNW,12.7,-,N/A,,Overcast,330,2013-01-13 10:55:00
5:15 AM,10.2,3.7,75,30.15,7.0,NNW,9.2,-,N/A,,Mostly Cloudy,340,2013-01-13 11:15:00
5:35 AM,10.0,4.1,77,30.16,7.0,Calm,Calm,-,N/A,,Mostly Cloudy,0,2013-01-13 11:35:00
5:55 AM,10.0,4.1,77,30.16,10.0,NNW,10.4,-,N/A,,Mostly Cloudy,330,2013-01-13 11:55:00
6:15 AM,9.5,3.7,77,30.17,10.0,Calm,Calm,-,N/A,,Scattered Clouds,0,2013-01-13 12:15:00
6:35 AM,9.1,3.6,78,30.17,10.0,Calm,Calm,-,N/A,,Scattered Clouds,0,2013-01-13 12:35:00
6:55 AM,9.0,4.1,81,30.18,7.0,Calm,Calm,-,N/A,,Scattered Clouds,0,2013-01-13 12:55:00
7:15 AM,8.6,3.9,81,30.19,7.0,Calm,Calm,-,N/A,Snow,Light Snow,0,2013-01-13 13:15:00
7:35 AM,8.6,3.0,78,30.19,10.0,NNW,8.1,-,N/A,,Clear,330,2013-01-13 13:35:00
7:55 AM,8.6,2.7,77,30.21,10.0,NW,6.9,-,N/A,,Clear,320,2013-01-13 13:55:00
8:15 AM,8.6,2.8,77,30.21,10.0,Calm,Calm,-,N/A,,Clear,0,2013-01-13 14:15:00
8:35 AM,9.7,3.4,76,30.23,10.0,NW,5.8,-,N/A,,Clear,310,2013-01-13 14:35:00
8:55 AM,10.8,4.3,75,30.23,10.0,NW,6.9,-,N/A,,Clear,310,2013-01-13 14:55:00
9:15 AM,11.5,3.9,72,30.23,10.0,NW,12.7,18.4,N/A,,Clear,310,2013-01-13 15:15:00
9:35 AM,12.2,4.1,70,30.23,10.0,NNW,12.7,-,N/A,,Clear,330,2013-01-13 15:35:00
9:55 AM,13.1,4.1,67,30.23,10.0,NW,11.5,20.7,N/A,,Clear,320,2013-01-13 15:55:00
10:15 AM,14.0,3.9,64,30.24,10.0,NW,10.4,-,N/A,,Clear,320,2013-01-13 16:15:00
10:35 AM,15.3,4.5,62,30.24,10.0,NW,11.5,-,N/A,,Clear,310,2013-01-13 16:35:00
10:55 AM,16.0,4.6,61,30.23,10.0,NW,12.7,17.3,N/A,,Clear,310,2013-01-13 16:55:00
11:15 AM,16.7,4.6,59,30.23,10.0,NNW,11.5,-,N/A,,Clear,330,2013-01-13 17:15:00
11:35 AM,18.0,4.8,57,30.23,10.0,NW,10.4,-,N/A,,Clear,320,2013-01-13 17:35:00
11:55 AM,19.0,3.9,52,30.22,10.0,WNW,10.4,17.3,N/A,,Clear,300,2013-01-13 17:55:00
12:15 PM,19.6,3.2,49,30.22,10.0,WNW,12.7,-,N/A,,Clear,290,2013-01-13 18:15:00
12:35 PM,20.5,2.3,45,30.21,10.0,WNW,12.7,16.1,N/A,,Clear,300,2013-01-13 18:35:00
12:55 PM,21.4,2.1,43,30.21,10.0,NW,12.7,17.3,N/A,,Clear,310,2013-01-13 18:55:00
1:15 PM,21.6,1.0,41,30.20,10.0,WNW,13.8,19.6,N/A,,Clear,300,2013-01-13 19:15:00
1:35 PM,22.3,1.4,40,30.19,10.0,NW,11.5,-,N/A,,Clear,310,2013-01-13 19:35:00
1:55 PM,22.6,1.2,40,30.20,10.0,NW,10.4,18.4,N/A,,Clear,320,2013-01-13 19:55:00
2:15 PM,23.0,1.0,39,30.20,10.0,WNW,6.9,18.4,N/A,,Clear,290,2013-01-13 20:15:00
2:35 PM,23.5,1.4,38,30.21,10.0,WNW,12.7,17.3,N/A,,Clear,290,2013-01-13 20:35:00
2:55 PM,23.7,1.0,38,30.21,10.0,WNW,6.9,-,N/A,,Clear,300,2013-01-13 20:55:00
3:15 PM,23.7,1.9,39,30.22,10.0,WNW,13.8,-,N/A,,Clear,290,2013-01-13 21:15:00
3:35 PM,23.2,2.1,40,30.21,10.0,WNW,13.8,19.6,N/A,,Clear,300,2013-01-13 21:35:00
3:55 PM,23.0,3.4,43,30.23,10.0,WNW,12.7,17.3,N/A,,Clear,300,2013-01-13 21:55:00
4:15 PM,22.8,3.9,44,30.24,10.0,NW,12.7,16.1,N/A,,Clear,310,2013-01-13 22:15:00
4:35 PM,22.1,4.8,48,30.25,10.0,WNW,6.9,-,N/A,,Clear,300,2013-01-13 22:35:00
4:55 PM,21.2,4.8,49,30.26,10.0,NW,9.2,-,N/A,,Clear,310,2013-01-13 22:55:00
5:15 PM,19.9,5.5,54,30.26,10.0,WNW,4.6,-,N/A,,Clear,300,2013-01-13 23:15:00
5:35 PM,18.5,5.9,58,30.27,10.0,Calm,Calm,-,N/A,,Clear,0,2013-01-13 23:35:00
5:55 PM,17.4,6.4,62,30.26,10.0,Calm,Calm,-,N/A,,Clear,0,2013-01-13 23:55:00
6:15 PM,16.5,6.3,64,30.27,10.0,Calm,Calm,-,N/A,,Clear,0,2013-01-14 00:15:00
6:35 PM,16.0,5.9,65,30.28,10.0,Calm,Calm,-,N/A,,Clear,0,2013-01-14 00:35:00
6:55 PM,15.1,5.9,67,30.28,10.0,Calm,Calm,-,N/A,,Clear,0,2013-01-14 00:55:00
7:15 PM,14.5,5.7,68,30.28,10.0,Calm,Calm,-,N/A,,Clear,0,2013-01-14 01:15:00
7:35 PM,14.9,5.4,66,30.28,10.0,Calm,Calm,-,N/A,,Clear,0,2013-01-14 01:35:00
7:55 PM,14.2,5.0,67,30.28,10.0,Calm,Calm,-,N/A,,Clear,0,2013-01-14 01:55:00
8:15 PM,13.6,5.2,69,30.29,10.0,Calm,Calm,-,N/A,,Clear,0,2013-01-14 02:15:00
8:35 PM,13.8,5.0,68,30.28,10.0,Calm,Calm,-,N/A,,Clear,0,2013-01-14 02:35:00
8:55 PM,13.1,5.0,70,30.28,10.0,Calm,Calm,-,N/A,,Clear,0,2013-01-14 02:55:00
9:15 PM,13.1,5.2,71,30.29,10.0,Calm,Calm,-,N/A,,Clear,0,2013-01-14 03:15:00
9:35 PM,12.9,4.8,70,30.30,10.0,Calm,Calm,-,N/A,,Clear,0,2013-01-14 03:35:00
9:55 PM,13.1,5.0,70,30.30,10.0,Calm,Calm,-,N/A,,Clear,0,2013-01-14 03:55:00
10:15 PM,13.1,4.8,70,30.31,10.0,Calm,Calm,-,N/A,,Clear,0,2013-01-14 04:15:00
10:35 PM,12.6,4.6,71,30.32,10.0,Calm,Calm,-,N/A,,Clear,0,2013-01-14 04:35:00
10:55 PM,12.0,4.1,71,30.33,10.0,Calm,Calm,-,N/A,,Clear,0,2013-01-14 04:55:00
11:35 PM,11.3,4.1,73,30.33,10.0,Calm,Calm,-,N/A,,Clear,0,2013-01-14 05:35:00
11:55 PM,11.8,4.1,71,30.33,10.0,Calm,Calm,-,N/A,,Clear,0,2013-01-14 05:55:00